GW6027 Weather Reports


time (UTC)temp
C
wind
direction
speed
KPH
gust
KPH
rain 1hr
cm
rain 24hr
cm
rain mn
cm
humidity
%
barometer
mb
20260507065344 20 171 4.8 20.9 0.00 0.69 0.03 58 1007.5
20260507062306 19 244 8.0 19.3 0.00 0.69 0.03 57 1007.5
20260507054855 18 211 19.3 22.5 0.00 0.69 0.03 59 1007.5
20260507051007 18 173 9.7 17.7 0.00 0.69 0.03 61 1007.6
20260507043939 18 233 4.8 20.9 0.00 0.69 0.03 61 1007.6
20260507035547 18 226 8.0 16.1 0.00 0.69 0.03 61 1007.7
20260507031559 17 261 9.7 19.3 0.00 0.69 0.03 66 1007.7
20260507024045 17 230 17.7 25.7 0.00 0.69 0.03 66 1007.8
20260507020754 17 210 17.7 24.1 0.00 0.69 0.03 67 1007.9
20260507013448 17 258 8.0 25.7 0.00 0.69 0.03 65 1007.9
20260507010345 17 236 14.5 29.0 0.00 0.69 0.03 64 1007.8
20260507003426 16 216 22.5 30.6 0.00 0.69 0.03 65 1007.8
20260507000518 16 211 11.3 27.4 0.00 0.69 0.03 65 1007.7
20260506232847 16 260 17.7 29.0 0.00 0.69 0.03 67 1007.7
20260506225338 16 193 16.1 27.4 0.00 0.69 0.03 67 1007.7
20260506223028 15 218 17.7 32.2 0.00 0.69 0.03 70 1007.5
20260506215943 15 209 22.5 27.4 0.00 0.69 0.03 72 1007.4
20260506211824 15 224 22.5 29.0 0.00 0.69 0.03 74 1007.4
20260506203700 15 247 17.7 32.2 0.00 0.69 0.03 76 1007.4
20260506200120 15 213 12.9 30.6 0.00 0.69 0.03 75 1007.4
20260506192419 14 243 17.7 24.1 0.00 0.69 0.03 79 1007.3
20260506185423 13 217 24.1 32.2 0.00 0.69 0.03 77 1007.3
20260506181910 13 225 16.1 27.4 0.00 0.69 0.03 80 1007.3
20260506175323 13 227 12.9 20.9 0.00 0.69 0.03 79 1007.2
20260506172252 13 250 9.7 24.1 0.00 0.69 0.03 81 1007.0
20260506164631 13 222 20.9 29.0 0.00 0.69 0.03 82 1007.3
20260506161337 13 237 14.5 24.1 0.00 0.69 0.03 82 1007.3
20260506154721 12 252 12.9 22.5 0.00 0.69 0.03 83 1007.3
20260506151325 12 236 16.1 25.7 0.00 0.69 0.03 84 1007.2
20260506144959 12 232 16.1 24.1 0.00 0.69 0.03 85 1007.0
20260506141936 11 216 11.3 16.1 0.00 0.69 0.03 86 1007.1
20260506135616 11 248 9.7 12.9 0.00 0.69 0.03 87 1007.1
20260506132925 11 222 9.7 17.7 0.00 0.69 0.03 88 1007.2
20260506125748 10 250 11.3 17.7 0.00 0.69 0.03 89 1006.9
20260506123158 10 224 11.3 14.5 0.00 0.69 0.03 92 1006.7
20260506120617 10 205 9.7 12.9 0.00 0.69 0.03 92 1006.8
20260506113323 10 218 11.3 19.3 0.00 0.69 0.03 93 1006.8
20260506110624 10 216 14.5 16.1 0.00 0.69 0.03 93 1006.8
20260506103929 10 226 14.5 17.7 0.00 0.69 0.03 93 1006.8
20260506101234 10 191 14.5 22.5 0.00 0.69 0.03 93 1007.0
20260506094901 11 223 14.5 17.7 0.00 0.69 0.03 93 1007.0
20260506092212 11 225 14.5 20.9 0.00 0.69 0.03 93 1007.0
20260506090209 11 224 12.9 22.5 0.00 0.69 0.03 93 1006.9
20260506084338 11 242 9.7 17.7 0.00 0.69 0.03 93 1006.8
20260506082454 11 228 12.9 17.7 0.00 0.69 0.03 93 1006.7
20260506080128 11 229 14.5 22.5 0.03 0.69 0.03 93 1006.6
20260506071556 11 250 4.8 12.9 0.03 0.69 0.03 93 1006.7